Retour au catalogue

GALILEO 26

2C2

ActifNavigationMEO
NORAD 43565·PAYLOAD·🇪🇺 EU

Lancé Jul 25, 2018 depuis Guiana Space Centre

Loading…

Prochains Passages (prochaines 24 heures)

TLE

FraisSource: CelesTrak SupGP

Époque: Sep 13, 2026, 23:59 UTC

1 43565C 18060B   26256.99979167  .00000000  00000+0  00000+0 0  2560
2 43565  57.1368 339.3861 0004784 242.5987 203.8805  1.70476326    11

Suivez GALILEO 26 en temps réel avec AllMySat

Download on the App Store